Weather History for KINW - November, 2011

Change the Weather History Date:

Wednesday, November 2, 2011

  Actual Average Record
Temperature  
Mean Temperature 40 °F 50 °F  
Max Temperature 52 °F 67 °F 78 °F (1953)
Min Temperature 28 °F 33 °F 13 °F (1929)
Degree Days  
Heating Degree Days 25 15  
Month to date heating degree days 34 30  
Since 1 July heating degree days 292 336  
Cooling Degree Days 0 0  
Month to date cooling degree days 0 0  
Year to date cooling degree days 1347 1208  
Moisture  
Dew Point 10 °F    
Average Humidity 35    
Maximum Humidity 53    
Minimum Humidity 17    
Precipitation  
Precipitation 0.00 in 0.02 in 0.35 in (1990)
Month to date precipitation 0.00 0.04  
Year to date precipitation 5.48 5.98  
Sea Level Pressure  
Sea Level Pressure 30.29 in    
Wind  
Wind Speed 7 mph (NW)    
Max Wind Speed 22 mph    
Max Gust Speed 29 mph    
Visibility 10 miles    
Events      
T = Trace of Precipitation, MM = Missing Value Source: NWS Daily Summary

Daily Weather History Graph

Daily Weather History Graph

Search for Another Location

Airport or City:

Trip Planner

Search our weather history database for the weather conditions in past years. The results will help you decide how hot, cold, wet, or windy it might be!

Date:

Astronomy

Nov. 02, 2011 Rise Set
Actual Time 6:44 AM MST 5:27 PM MST
Civil Twilight 6:18 AM MST 5:53 PM MST
Nautical Twilight 5:48 AM MST 6:23 PM MST
Astronomical Twilight 5:18 AM MST 6:53 PM MST
Moon 1:06 PM MST No Moon Set
Length of Visible Light 11h 35m
Length of Day
10h 43m
Waxing Crescent, 51% of the Moon is Illuminated
Nov 2
Waxing Crescent
Nov 10
Full
Nov 18
Last Quarter
Nov 24
New
Dec 2
First Quarter

Hourly Weather History & Observations

Time (MST) Temp. Windchill Dew Point Humidity Pressure Visibility Wind Dir Wind Speed Gust Speed Precip Events Conditions
12:56 AM 41.0 °F 31.6 °F -0.9 °F 17% 30.07 in 10.0 mi NW 20.7 mph - N/A   Clear
1:56 AM 37.9 °F 28.9 °F 3.0 °F 23% 30.09 in 10.0 mi WNW 16.1 mph - N/A   Clear
2:56 AM 37.9 °F 29.2 °F 3.9 °F 24% 30.13 in 10.0 mi NW 15.0 mph - N/A   Clear
3:56 AM 37.0 °F 28.1 °F 5.0 °F 26% 30.16 in 10.0 mi NW 15.0 mph - N/A   Clear
4:56 AM 35.6 °F 27.5 °F 5.0 °F 28% 30.29 in 10.0 mi WNW 11.5 mph - N/A   Clear
5:56 AM 35.1 °F 28.6 °F 6.1 °F 30% 30.25 in 10.0 mi WNW 8.1 mph - N/A   Clear
6:56 AM 30.9 °F 25.2 °F 8.1 °F 38% 30.30 in 10.0 mi West 5.8 mph - N/A   Clear
7:47 AM 60.8 °F - 17.6 °F 19% 30.12 in 35.0 mi NNW 10.4 mph - N/A   Clear
7:56 AM 37.0 °F 31.0 °F 10.0 °F 33% 30.32 in 10.0 mi NW 8.1 mph - N/A   Clear
8:56 AM 39.9 °F 32.5 °F 9.0 °F 28% 30.36 in 10.0 mi NW 12.7 mph - N/A   Clear
9:56 AM 43.0 °F 38.8 °F 10.0 °F 26% 30.36 in 10.0 mi North 6.9 mph - N/A   Clear
10:56 AM 46.0 °F 42.5 °F 10.0 °F 23% 30.37 in 10.0 mi NNW 6.9 mph - N/A   Clear
11:56 AM 48.0 °F - 10.9 °F 22% 30.36 in 10.0 mi NNW 4.6 mph - N/A   Clear
12:56 PM 48.9 °F - 10.9 °F 22% 30.34 in 10.0 mi Calm Calm - N/A   Clear
1:56 PM 50.0 °F - 10.0 °F 20% 30.33 in 10.0 mi Calm Calm - N/A   Clear
2:56 PM 52.0 °F - 9.0 °F 18% 30.31 in 10.0 mi North 6.9 mph - N/A   Clear
3:56 PM 52.0 °F - 9.0 °F 18% 30.30 in 10.0 mi NW 4.6 mph - N/A   Clear
4:56 PM 51.1 °F - 9.0 °F 18% 30.30 in 10.0 mi NE 4.6 mph - N/A   Clear
5:56 PM 48.2 °F - 10.4 °F 22% 30.33 in 10.0 mi Calm Calm - N/A   Clear
6:56 PM 37.4 °F 34.9 °F 12.2 °F 36% 30.34 in 10.0 mi West 3.5 mph - N/A   Clear
7:56 PM 34.0 °F 29.8 °F 15.1 °F 46% 30.36 in 10.0 mi SW 4.6 mph - N/A   Clear
8:56 PM 37.4 °F - 15.8 °F 41% 30.36 in 10.0 mi Calm Calm - N/A   Clear
9:56 PM 30.9 °F - 15.1 °F 52% 30.38 in 10.0 mi Calm Calm - N/A   Clear
10:56 PM 32.0 °F - 15.8 °F 51% 30.36 in 10.0 mi Calm Calm - N/A   Clear
11:56 PM 30.0 °F - 16.0 °F 56% 30.36 in 10.0 mi Calm Calm - N/A   Clear